This demonstration page uses our WeatherBlox Daily Observations layout. Learn more.

Left ArrowRight Arrow

Hourly Observations for May 14, 2021

Temp ( °F °C ) Dew Point ( °F °C ) Humidity (%) Winds ( mph kmh ) Pressure ( in mb ) Visibility ( mi km ) Precip ( " mm )
12:51 am 00:51 Clear 75 23.9 13 -10.6 9 9 E 6 9 29.8 1009 10 16.0934 N/A
1:51 am 01:51 Clear 71 21.7 14 -10 11 11 ESE 5 7 29.81 1010 10 16.0934 N/A
2:51 am 02:51 Clear 65 18.3 23 -5 20 20 N 5 7 29.83 1010 10 16.0934 N/A
3:51 am 03:51 Clear 67 19.4 33 0.6 28 28 SSE 6 9 29.82 1010 10 16.0934 N/A
4:51 am 04:51 Clear 63 17.2 28 -2.2 27 27 ENE 3 6 29.84 1010 10 16.0934 N/A
5:51 am 05:51 Sunny 66 18.9 30 -1.1 26 26 ESE 7 11 29.85 1011 10 16.0934 N/A
6:51 am 06:51 Sunny 69 20.6 32 undefined 25 25 SE 5 7 29.86 1011 10 16.0934 N/A
7:51 am 07:51 Sunny 81 27.2 43 6.1 26 26 ESE 10 17 29.86 1011 10 16.0934 N/A
8:51 am 08:51 Sunny 82 27.8 43 6.1 25 25 ESE 12 19 29.85 1011 10 16.0934 N/A
9:51 am 09:51 Sunny 85 29.4 43 6.1 23 23 E 7 11 29.85 1011 10 16.0934 N/A
10:51 am 10:51 Sunny 87 30.6 41 5 20 20 undefined N/A 29.82 1010 10 16.0934 N/A
11:51 am 11:51 Sunny 92 33.3 30 -1.1 11 11 SE 7 11 29.79 1009 10 16.0934 N/A
12:51 pm 12:51 Sunny 93 33.9 32 undefined 11 11 VRB 5 7 29.75 1007 10 16.0934 N/A
1:51 pm 13:51 Sunny 96 35.6 31 -0.6 10 10 NNE 9 15 29.71 1006 10 16.0934 N/A
2:51 pm 14:51 Sunny 96 35.6 24 -4.4 7 7 SSW 13 20 29.68 1005 10 16.0934 N/A
3:51 pm 15:51 Sunny 94 34.4 28 -2.2 9 9 VRB 3 6 29.65 1004 10 16.0934 N/A
4:51 pm 16:51 Sunny 95 35 27 -2.8 9 9 S 10 17 29.64 1004 10 16.0934 N/A
5:51 pm 17:51 Sunny 93 33.9 32 undefined 11 11 S 16 26 29.63 1003 10 16.0934 N/A
6:51 pm 18:51 Sunny 91 32.8 25 -3.9 9 9 NW 16 26 29.67 1005 10 16.0934 N/A
7:51 pm 19:51 Mostly Clear 88 31.1 27 -2.8 11 11 NW 23 37 29.67 1005 10 16.0934 N/A
8:51 pm 20:51 Clear 86 30 25 -3.9 11 11 NNW 7 11 29.7 1006 10 16.0934 N/A
9:51 pm 21:51 Clear 79 26.1 22 -5.6 12 12 W 6 9 29.71 1006 10 16.0934 N/A
10:51 pm 22:51 Clear 75 23.9 21 -6.1 13 13 WNW 9 15 29.71 1006 10 16.0934 N/A
11:51 pm 23:51 Clear 76 24.4 22 -5.6 13 13 NNW 9 15 29.71 1006 10 16.0934 N/A

Powered by AerisWeather